ELEKTRON 1 DEB, 750

Orbit data source: Space-Track

ELEKTRON 1 DEB, 750 is space debris in LEO originally from a launch on Thu, 30 Jan 1964 UTC launched from the Tyuratam Missile And Space Complex (TTMTR). Debris objects in space refer to the collection of defunct objects orbiting the Earth. Examples of debris include non-operational satellites, rocket bodies, and fragments generated from explosions, collisions, or faulty payload assembly.

Loading next visibility...
Identifier
750, 1964-006C
Orbit
LEO
Country
Flag of CISCIS
Related business
Manufacturer
OKB-1
Mission
Spacecraft
Bus & Motor
ADAPTER, Unknown motor
Mass
Unknown
Launch date (UTC)
1964-01-30 (62 years ago)
Launch vehicle
Unknown
Launch site
Tyuratam Missile And Space Complex (TTMTR)
Object type
Payload
Rocket body
Debris
Shape & HBR
Unknown shape, 0.3 m
Radar Cross Section
Medium (>0.1 m² and <1 m²)

Expand to show TLE details & history
Last TLE update: 18 hours ago

TLE from 18 hours ago
0 ELEKTRON 1 DEB
1 00750U 64006C   25286.90594875  .00024210  00000-0  26464-2 0  9991
2 00750  60.7621 223.5721 1417324 306.0487  41.7083 12.40792585815963
Epoch: 2025-10-13T21:44Z
TLE epoch observation values (Epoch: 2025-10-13T21:44:33.972Z)
Latitude
0.00004°
Longitude
-125.27144°
Altitude
753.228 km
Speed
7.827 km/s
True Right ascension
14h 54m 17s
True Declination
0° 00' 00"
Sunlit
Object was in daylight at epoch
Visualization orbit readout
Latitude
Unknown
Longitude
Unknown
Altitude
Unknown
Speed
Unknown
Apparent Right ascension
Unknown
Apparent Declination
Unknown
Sunlit
N/A
Visualization observer readout
Local Sidereal Time
10:38:07
Azimuth
Unknown
Elevation
Unknown
Doppler factor
Unknown
Orbital elements
Apogee altitude
2,619.363 km
Perigee altitude
385.499 km
Semi-major axis
7,880.568 km
Eccentricity
0.14173
Inclination
60.7621°
RAAN
223.5721°
Arg. of periapsis
306.0487°
True anomaly
54.05192°
Mean anomaly
41.7083°
Eccentric anomaly
47.71614°
Mean motion
3.10246 °/min
Orbital period
116.04 mins
BSTAR
0.0026464
Loading maneuver chart data...
Computing Atmospheric mass density...

Documentation

Showing up to 5 results
|